CW3224 Weather Reports


time (UTC)temp
F
wind
direction
speed
knots
gust
knots
rain 1hr
in
rain 24hr
in
rain mn
in
humidity
%
barometer
mb
20260904200554 79 135 0.0 0.0 0.00 0.01 0.01 63 1008.1
20260904195546 79 126 0.0 0.0 0.00 0.01 0.01 63 1008.2
20260904194547 80 18 0.0 0.9 0.00 0.01 0.01 63 1008.2
20260904193546 80 128 0.0 1.7 0.00 0.01 0.01 59 1007.9
20260904192541 80 37 0.0 1.7 0.00 0.01 0.01 59 1007.7
20260904191539 80 236 0.0 0.0 0.00 0.01 0.01 59 1007.7
20260904190538 81 52 0.0 2.6 0.00 0.01 0.01 59 1008.1
20260904190020 81 166 0.0 3.5 0.00 0.01 0.01 61 1008.1
20260904185455 82 343 0.0 1.7 0.00 0.01 0.01 60 1008.1
20260904183537 82 14 0.9 4.3 0.00 0.01 0.01 58 1008.2
20260904182536 83 63 0.0 7.0 0.00 0.01 0.01 57 1008.2
20260904181536 83 103 0.0 3.5 0.00 0.01 0.01 58 1008.2
20260904180537 84 23 0.0 0.9 0.00 0.01 0.01 59 1008.2
20260904175537 84 108 0.0 3.5 0.00 0.01 0.01 57 1008.2
20260904174537 83 46 0.0 3.5 0.00 0.01 0.01 60 1008.2
20260904173536 83 42 0.0 4.3 0.00 0.01 0.01 60 1008.2
20260904172537 83 191 0.0 3.5 0.00 0.01 0.01 62 1008.2
20260904171535 82 48 0.0 1.7 0.00 0.01 0.01 64 1008.2
20260904170537 82 34 0.0 3.5 0.00 0.01 0.01 65 1008.6
20260904165535 82 27 0.0 2.6 0.00 0.01 0.01 66 1008.6
20260904164533 82 168 0.0 3.5 0.00 0.01 0.01 65 1008.6
20260904164014 82 87 0.0 0.9 0.00 0.01 0.01 65 1008.6
20260904162530 82 130 0.0 0.9 0.00 0.01 0.01 66 1008.6
20260904161531 82 79 0.0 0.0 0.00 0.01 0.01 70 1008.6
20260904160528 80 50 0.0 4.3 0.00 0.01 0.01 68 1008.7
20260904155528 80 296 0.0 2.6 0.00 0.01 0.01 71 1009.2
20260904155009 79 145 0.0 0.0 0.00 0.01 0.01 74 1009.2
20260904153526 79 59 0.0 2.6 0.00 0.01 0.01 75 1009.2
20260904152527 78 46 0.0 2.6 0.00 0.01 0.01 79 1009.3
20260904151526 76 158 0.0 0.0 0.00 0.01 0.01 79 1009.3
20260904150530 75 18 0.0 3.5 0.00 0.01 0.01 83 1009.3
20260904145525 73 37 0.0 0.0 0.00 0.01 0.01 91 1009.5
20260904144527 72 64 0.0 0.0 0.00 0.01 0.01 93 1009.5
20260904143526 71 8 0.0 0.0 0.00 0.01 0.01 94 1009.6
20260904142524 70 8 0.0 0.0 0.00 0.01 0.01 94 1009.7
20260904141524 70 10 0.0 0.0 0.00 0.01 0.01 95 1009.7
20260904140524 70 77 0.0 0.0 0.00 0.01 0.01 95 1009.7
20260904140008 68 208 0.0 0.0 0.00 0.01 0.01 95 1009.7
20260904134524 68 208 0.0 0.0 0.00 0.01 0.01 95 1009.7
20260904134005 68 139 0.0 0.0 0.00 0.01 0.01 95 1009.7
20260904132524 67 139 0.0 0.0 0.00 0.01 0.01 95 1009.9
20260904131959 66 186 0.0 0.0 0.00 0.01 0.01 95 1009.9
20260904131006 66 186 0.0 0.0 0.00 0.01 0.01 95 1009.8
20260904125522 65 185 0.0 0.0 0.00 0.01 0.01 95 1009.9
20260904124522 65 185 0.0 0.0 0.00 0.01 0.01 95 1009.9
20260904123520 64 185 0.0 0.0 0.00 0.01 0.01 94 1009.8
20260904122520 64 185 0.0 0.0 0.00 0.01 0.01 95 1009.8
20260904121520 64 185 0.0 0.0 0.00 0.01 0.01 94 1009.8
20260904120520 64 185 0.0 0.0 0.00 0.01 0.01 94 1009.7
20260904115521 64 185 0.0 0.0 0.00 0.01 0.01 94 1009.7
20260904114520 63 185 0.0 0.0 0.00 0.01 0.01 94 1009.7
20260904113519 63 185 0.0 0.0 0.00 0.01 0.01 94 1009.7
20260904112518 63 185 0.0 0.0 0.00 0.01 0.01 94 1009.7
20260904111518 63 185 0.0 0.0 0.00 0.01 0.01 94 1009.7
20260904110517 63 185 0.0 0.0 0.00 0.01 0.01 94 1009.7
20260904105519 63 185 0.0 0.0 0.00 0.01 0.01 94 1009.7
20260904104515 63 185 0.0 0.0 0.00 0.01 0.01 94 1009.7
20260904103516 63 185 0.0 0.0 0.00 0.01 0.01 94 1009.4
20260904102516 64 185 0.0 0.0 0.00 0.01 0.01 94 1009.3
20260904101516 64 185 0.0 0.0 0.00 0.01 0.01 94 1009.3
20260904100516 64 185 0.0 0.0 0.00 0.01 0.01 94 1009.2
20260904095517 64 185 0.0 0.0 0.00 0.01 0.01 94 1009.2
20260904094509 64 185 0.0 0.0 0.00 0.01 0.01 94 1009.2
20260904093509 64 185 0.0 0.0 0.00 0.03 0.01 94 1009.2
20260904092507 64 185 0.0 0.0 0.00 0.03 0.01 94 1009.2
20260904091507 64 185 0.0 0.0 0.00 0.05 0.01 94 1009.2
20260904090507 64 185 0.0 0.0 0.00 0.07 0.01 94 1009.2
20260904085503 64 185 0.0 0.0 0.00 0.07 0.01 94 1009.2
20260904084947 64 185 0.0 0.0 0.00 0.10 0.01 94 1009.2
20260904083503 64 185 0.0 0.0 0.00 0.10 0.01 93 1009.2
20260904082504 64 185 0.0 0.0 0.00 0.10 0.01 93 1009.3
20260904081503 65 185 0.0 0.0 0.00 0.10 0.01 94 1009.3
20260904080943 65 185 0.0 0.0 0.00 0.10 0.01 94 1009.7
20260904075938 65 185 0.0 0.0 0.00 0.12 0.01 94 1009.6
20260904074504 65 185 0.0 0.0 0.00 0.17 0.01 94 1009.6
20260904073504 65 185 0.0 0.0 0.00 0.17 0.01 93 1009.6
20260904072504 65 185 0.0 0.0 0.00 0.17 0.01 93 1009.7
20260904071454 65 185 0.0 0.0 0.00 0.17 0.01 93 1009.6
20260904070453 65 185 0.0 0.0 0.00 0.17 0.01 94 1009.6
20260904065453 65 185 0.0 0.0 0.01 0.17 0.01 93 1009.6
20260904064453 65 185 0.0 0.0 0.01 0.17 0.01 93 1009.7
20260904063453 65 185 0.0 0.0 0.01 0.17 0.01 93 1009.7
20260904062453 65 185 0.0 0.0 0.01 0.17 0.01 93 1009.8
20260904061452 65 185 0.0 0.0 0.01 0.17 0.01 93 1010.1
20260904060446 65 185 0.0 0.0 0.01 0.17 0.01 93 1010.1
20260904055445 65 185 0.0 0.0 0.00 0.16 0.00 93 1010.3
20260904054445 65 185 0.0 0.0 0.00 0.16 0.00 93 1010.6
20260904053446 65 185 0.0 0.0 0.00 0.16 0.00 93 1010.6
20260904052445 65 185 0.0 0.0 0.00 0.16 0.00 93 1010.7
20260904051442 65 185 0.0 0.0 0.00 0.16 0.00 93 1010.7
20260904050442 65 185 0.0 0.0 0.00 0.16 0.00 93 1010.7
20260904045441 65 187 0.0 0.0 0.00 0.16 0.00 93 1010.7
20260904044442 65 187 0.0 0.0 0.00 0.16 0.00 92 1010.7
20260904043435 65 187 0.0 0.0 0.00 0.16 0.00 92 1010.7
20260904042436 65 191 0.0 0.0 0.00 0.16 0.00 92 1010.8
20260904041435 65 191 0.0 0.0 0.00 0.16 0.00 92 1010.8
20260904040434 65 191 0.0 0.0 0.00 0.16 0.00 92 1010.8
20260904035904 65 191 0.0 0.0 0.00 0.16 0.16 91 1010.8
20260904034420 65 191 0.0 0.0 0.00 0.16 0.16 91 1011.1
20260904033420 66 191 0.0 0.0 0.00 0.16 0.16 92 1011.1
20260904032900 66 191 0.0 0.0 0.00 0.16 0.16 92 1011.0
20260904031420 66 191 0.0 0.0 0.00 0.16 0.16 91 1011.0
20260904030407 66 191 0.0 0.0 0.00 0.16 0.16 91 1011.0
20260904025848 66 191 0.0 0.0 0.00 0.16 0.16 91 1010.9
20260904024408 67 191 0.0 0.0 0.00 0.16 0.16 91 1011.2
20260904023407 67 191 0.0 0.0 0.00 0.16 0.16 91 1011.2
20260904022356 67 191 0.0 0.0 0.00 0.16 0.16 91 1011.2
20260904021354 67 191 0.0 0.0 0.00 0.16 0.16 91 1011.3
20260904020354 67 191 0.0 0.0 0.00 0.16 0.16 91 1011.3
20260904020307 67 191 0.0 0.0 0.00 0.16 0.16 91 1011.5
20260904014351 68 191 0.0 0.0 0.00 0.16 0.16 91 1011.4
20260904013350 68 191 0.0 0.0 0.00 0.16 0.16 90 1011.4
20260904012351 68 191 0.0 0.0 0.00 0.16 0.16 90 1011.6
20260904011350 68 191 0.0 0.0 0.00 0.16 0.16 90 1011.5
20260904010351 69 191 0.0 0.0 0.00 0.16 0.16 90 1011.5
20260904005348 69 191 0.0 0.0 0.00 0.16 0.16 90 1011.3
20260904004823 69 191 0.0 0.0 0.00 0.16 0.16 90 1011.3
20260904003347 69 191 0.0 0.0 0.00 0.16 0.16 89 1011.3
20260904002348 69 191 0.0 0.0 0.00 0.16 0.16 89 1010.9
20260904001348 70 191 0.0 0.0 0.00 0.16 0.16 89 1010.6
20260904000349 70 191 0.0 0.0 0.00 0.16 0.16 89 1010.6
20260903235340 70 191 0.0 0.0 0.00 0.16 0.16 89 1010.8
20260903234340 71 191 0.0 0.0 0.00 0.16 0.16 88 1010.6
20260903233340 71 191 0.0 0.0 0.00 0.16 0.16 88 1010.6
20260903232340 71 191 0.0 0.0 0.00 0.16 0.16 87 1010.7
20260903231340 72 191 0.0 0.0 0.00 0.16 0.16 87 1010.9
20260903230338 72 191 0.0 0.0 0.00 0.16 0.16 87 1010.9
20260903225338 72 191 0.0 0.0 0.00 0.16 0.16 87 1010.7
20260903224337 73 191 0.0 0.0 0.00 0.16 0.16 87 1010.7
20260903223337 73 191 0.0 0.0 0.00 0.16 0.16 86 1010.7
20260903222339 73 191 0.0 0.0 0.00 0.16 0.16 86 1011.3
20260903221336 73 191 0.0 0.0 0.00 0.16 0.16 86 1011.3
20260903220337 73 191 0.0 0.0 0.00 0.16 0.16 85 1011.3
20260903215820 73 191 0.0 0.0 0.00 0.16 0.16 85 1011.3
20260903214336 73 191 0.0 0.0 0.00 0.16 0.16 85 1011.1
20260903213336 74 191 0.0 0.0 0.00 0.16 0.16 84 1011.1
20260903212336 74 191 0.0 0.0 0.00 0.16 0.16 84 1011.3
20260903211327 74 191 0.0 0.0 0.00 0.16 0.16 84 1011.2
20260903210326 74 190 0.0 0.0 0.00 0.16 0.16 85 1011.2
20260903205326 74 191 0.0 0.0 0.00 0.16 0.16 84 1011.2
20260903204325 74 191 0.0 0.0 0.00 0.16 0.16 84 1011.3
20260903203804 74 129 0.0 0.0 0.00 0.16 0.16 84 1011.3
20260903202323 74 129 0.0 0.0 0.00 0.16 0.16 84 1011.3
20260903201325 74 129 0.0 0.0 0.00 0.16 0.16 83 1011.3